owner,sensor,date,latitude,longitude,vertical_datum,wind_speed,wind_to_direction,wind_speed_of_gust,qcFlag 
COMPS,ioos:station:USF.COMPS:BGC:1,2016-06-01T01:00:00Z,26.4040,-81.8810,10.0,0.44,0.0,0.78,'1111122,1114422,1111122' 
COMPS,ioos:station:USF.COMPS:BGC:1,2016-06-01T01:06:00Z,26.4040,-81.8810,10.0,0.14,0.0,0.58,'1111122,1114422,1111122' 
COMPS,ioos:station:USF.COMPS:BGC:1,2016-06-01T01:12:00Z,26.4040,-81.8810,10.0,0.59,0.0,0.98,'1111122,1114422,1111122' 
COMPS,ioos:station:USF.COMPS:BGC:1,2016-06-01T01:18:00Z,26.4040,-81.8810,10.0,0.91,0.0,1.17,'1111122,1114422,1111122' 
COMPS,ioos:station:USF.COMPS:BGC:1,2016-06-01T01:24:00Z,26.4040,-81.8810,10.0,0.86,0.0,1.17,'1111122,1114422,1111122' 
COMPS,ioos:station:USF.COMPS:BGC:1,2016-06-01T01:30:00Z,26.4040,-81.8810,10.0,0.8,0.0,1.17,'1111122,1114422,1111122' 
COMPS,ioos:station:USF.COMPS:BGC:1,2016-06-01T01:36:00Z,26.4040,-81.8810,10.0,0.75,0.0,1.27,'1111122,1114422,1111122' 
COMPS,ioos:station:USF.COMPS:BGC:1,2016-06-01T01:42:00Z,26.4040,-81.8810,10.0,1.47,0.0,2.64,'1111122,1114422,1111122' 
COMPS,ioos:station:USF.COMPS:BGC:1,2016-06-01T01:48:00Z,26.4040,-81.8810,10.0,2.16,0.0,2.54,'1111122,1114422,1111122' 
COMPS,ioos:station:USF.COMPS:BGC:1,2016-06-01T01:54:00Z,26.4040,-81.8810,10.0,2.2,0.0,2.64,'1111122,1114422,1111122' 
COMPS,ioos:station:USF.COMPS:BGC:1,2016-06-01T02:00:00Z,26.4040,-81.8810,10.0,1.85,0.0,2.45,'1111122,1114422,1111122' 
COMPS,ioos:station:USF.COMPS:BGC:1,2016-06-01T02:06:00Z,26.4040,-81.8810,10.0,1.85,0.0,2.74,'1111122,1114422,1111122' 
COMPS,ioos:station:USF.COMPS:BGC:1,2016-06-01T02:12:00Z,26.4040,-81.8810,10.0,2.33,0.0,3.13,'1111122,1114422,1111122' 
COMPS,ioos:station:USF.COMPS:BGC:1,2016-06-01T02:18:00Z,26.4040,-81.8810,10.0,2.56,0.0,3.43,'1111122,1114422,1111122' 
COMPS,ioos:station:USF.COMPS:BGC:1,2016-06-01T02:24:00Z,26.4040,-81.8810,10.0,3.87,0.0,5.09,'1111122,1114422,1111122' 
COMPS,ioos:station:USF.COMPS:BGC:1,2016-06-01T02:30:00Z,26.4040,-81.8810,10.0,3.61,0.0,4.7,'1111122,1114422,1111122' 
COMPS,ioos:station:USF.COMPS:BGC:1,2016-06-01T02:36:00Z,26.4040,-81.8810,10.0,3.07,0.0,4.11,'1111122,1114422,1111122' 
COMPS,ioos:station:USF.COMPS:BGC:1,2016-06-01T02:42:00Z,26.4040,-81.8810,10.0,2.67,0.0,3.62,'1111122,1114422,1111122' 
COMPS,ioos:station:USF.COMPS:BGC:1,2016-06-01T02:48:00Z,26.4040,-81.8810,10.0,2.62,0.0,3.52,'1111122,1114422,1111122' 
COMPS,ioos:station:USF.COMPS:BGC:1,2016-06-01T02:54:00Z,26.4040,-81.8810,10.0,2.63,0.0,3.13,'1111122,1114422,1111122' 
COMPS,ioos:station:USF.COMPS:BGC:1,2016-06-01T03:00:00Z,26.4040,-81.8810,10.0,2.56,0.0,3.62,'1111122,1114422,1111122' 
COMPS,ioos:station:USF.COMPS:BGC:1,2016-06-01T03:06:00Z,26.4040,-81.8810,10.0,2.06,0.0,2.94,'1111122,1114422,1111122' 
COMPS,ioos:station:USF.COMPS:BGC:1,2016-06-01T03:12:00Z,26.4040,-81.8810,10.0,1.66,0.0,2.05,'1111122,1114422,1111122' 
COMPS,ioos:station:USF.COMPS:BGC:1,2016-06-01T03:18:00Z,26.4040,-81.8810,10.0,0.94,0.0,1.37,'1111122,1114422,1111122' 
COMPS,ioos:station:USF.COMPS:BGC:1,2016-06-01T03:24:00Z,26.4040,-81.8810,10.0,1.94,0.0,2.64,'1111122,1114422,1111122' 
COMPS,ioos:station:USF.COMPS:BGC:1,2016-06-01T03:30:00Z,26.4040,-81.8810,10.0,1.89,0.0,2.84,'1111122,1114422,1111122' 
COMPS,ioos:station:USF.COMPS:BGC:1,2016-06-01T03:36:00Z,26.4040,-81.8810,10.0,2.09,0.0,3.13,'1111122,1114422,1111122' 
COMPS,ioos:station:USF.COMPS:BGC:1,2016-06-01T03:42:00Z,26.4040,-81.8810,10.0,2.78,0.0,3.72,'1111122,1114422,1111122' 
COMPS,ioos:station:USF.COMPS:BGC:1,2016-06-01T03:48:00Z,26.4040,-81.8810,10.0,2.69,0.0,3.43,'1111122,1114422,1111122' 
COMPS,ioos:station:USF.COMPS:BGC:1,2016-06-01T03:54:00Z,26.4040,-81.8810,10.0,2.98,0.0,3.92,'1111122,1114422,1111122' 
COMPS,ioos:station:USF.COMPS:BGC:1,2016-06-01T04:00:00Z,26.4040,-81.8810,10.0,3.33,0.0,4.31,'1111122,1114422,1111122' 
COMPS,ioos:station:USF.COMPS:BGC:1,2016-06-01T04:06:00Z,26.4040,-81.8810,10.0,3.45,0.0,4.11,'1111122,1114422,1111122' 
COMPS,ioos:station:USF.COMPS:BGC:1,2016-06-01T04:12:00Z,26.4040,-81.8810,10.0,3.59,0.0,4.31,'1111122,1114422,1111122' 
COMPS,ioos:station:USF.COMPS:BGC:1,2016-06-01T04:18:00Z,26.4040,-81.8810,10.0,3.35,0.0,4.21,'1111122,1114422,1111122' 
COMPS,ioos:station:USF.COMPS:BGC:1,2016-06-01T04:24:00Z,26.4040,-81.8810,10.0,2.93,0.0,3.62,'1111122,1114422,1111122' 
COMPS,ioos:station:USF.COMPS:BGC:1,2016-06-01T04:30:00Z,26.4040,-81.8810,10.0,2.54,0.0,3.03,'1111122,1114422,1111122' 
COMPS,ioos:station:USF.COMPS:BGC:1,2016-06-01T04:36:00Z,26.4040,-81.8810,10.0,2.31,0.0,2.94,'1111122,1114422,1111122' 
COMPS,ioos:station:USF.COMPS:BGC:1,2016-06-01T04:42:00Z,26.4040,-81.8810,10.0,2.41,0.0,3.03,'1111122,1114422,1111122' 
COMPS,ioos:station:USF.COMPS:BGC:1,2016-06-01T04:48:00Z,26.4040,-81.8810,10.0,2.28,0.0,2.64,'1111122,1114422,1111122' 
COMPS,ioos:station:USF.COMPS:BGC:1,2016-06-01T04:54:00Z,26.4040,-81.8810,10.0,2.25,0.0,2.84,'1111122,1114422,1111122' 
COMPS,ioos:station:USF.COMPS:BGC:1,2016-06-01T05:00:00Z,26.4040,-81.8810,10.0,1.87,0.0,2.45,'1111122,1114422,1111122' 
COMPS,ioos:station:USF.COMPS:BGC:1,2016-06-01T05:06:00Z,26.4040,-81.8810,10.0,2.01,0.0,2.94,'1111122,1114422,1111122' 
COMPS,ioos:station:USF.COMPS:BGC:1,2016-06-01T05:12:00Z,26.4040,-81.8810,10.0,2.07,0.0,2.64,'1111122,1114422,1111122' 
COMPS,ioos:station:USF.COMPS:BGC:1,2016-06-01T05:18:00Z,26.4040,-81.8810,10.0,2.55,0.0,2.84,'1111122,1114422,1111122' 
COMPS,ioos:station:USF.COMPS:BGC:1,2016-06-01T05:24:00Z,26.4040,-81.8810,10.0,2.39,0.0,2.74,'1111122,1114422,1111122' 
COMPS,ioos:station:USF.COMPS:BGC:1,2016-06-01T05:30:00Z,26.4040,-81.8810,10.0,2.7,0.0,3.13,'1111122,1114422,1111122' 
COMPS,ioos:station:USF.COMPS:BGC:1,2016-06-01T05:36:00Z,26.4040,-81.8810,10.0,3.04,0.0,3.62,'1111122,1114422,1111122' 
COMPS,ioos:station:USF.COMPS:BGC:1,2016-06-01T05:42:00Z,26.4040,-81.8810,10.0,2.84,0.0,3.72,'1111122,1114422,1111122' 
COMPS,ioos:station:USF.COMPS:BGC:1,2016-06-01T05:48:00Z,26.4040,-81.8810,10.0,2.77,0.0,3.52,'1111122,1114422,1111122' 
COMPS,ioos:station:USF.COMPS:BGC:1,2016-06-01T05:54:00Z,26.4040,-81.8810,10.0,2.84,0.0,3.43,'1111122,1114422,1111122' 
COMPS,ioos:station:USF.COMPS:BGC:1,2016-06-01T06:00:00Z,26.4040,-81.8810,10.0,2.58,0.0,3.33,'1111122,1114422,1111122' 
COMPS,ioos:station:USF.COMPS:BGC:1,2016-06-01T06:06:00Z,26.4040,-81.8810,10.0,2.49,0.0,3.13,'1111122,1114422,1111122' 
COMPS,ioos:station:USF.COMPS:BGC:1,2016-06-01T06:12:00Z,26.4040,-81.8810,10.0,1.93,0.0,2.84,'1111122,1114422,1111122' 
COMPS,ioos:station:USF.COMPS:BGC:1,2016-06-01T06:18:00Z,26.4040,-81.8810,10.0,2.2,0.0,3.13,'1111122,1114422,1111122' 
COMPS,ioos:station:USF.COMPS:BGC:1,2016-06-01T06:24:00Z,26.4040,-81.8810,10.0,1.68,0.0,2.15,'1111122,1114422,1111122' 
COMPS,ioos:station:USF.COMPS:BGC:1,2016-06-01T06:30:00Z,26.4040,-81.8810,10.0,2.03,0.0,2.35,'1111122,1114422,1111122' 
COMPS,ioos:station:USF.COMPS:BGC:1,2016-06-01T06:36:00Z,26.4040,-81.8810,10.0,1.91,0.0,2.54,'1111122,1114422,1111122' 
COMPS,ioos:station:USF.COMPS:BGC:1,2016-06-01T06:42:00Z,26.4040,-81.8810,10.0,1.74,0.0,2.35,'1111122,1114422,1111122' 
COMPS,ioos:station:USF.COMPS:BGC:1,2016-06-01T06:48:00Z,26.4040,-81.8810,10.0,1.96,0.0,2.64,'1111122,1114422,1111122' 
COMPS,ioos:station:USF.COMPS:BGC:1,2016-06-01T06:54:00Z,26.4040,-81.8810,10.0,1.68,0.0,2.35,'1111122,1114422,1111122' 
COMPS,ioos:station:USF.COMPS:BGC:1,2016-06-01T07:00:00Z,26.4040,-81.8810,10.0,1.36,0.0,2.05,'1111122,1114422,1111122' 
COMPS,ioos:station:USF.COMPS:BGC:1,2016-06-01T07:06:00Z,26.4040,-81.8810,10.0,1.86,0.0,2.25,'1111122,1114422,1111122' 
COMPS,ioos:station:USF.COMPS:BGC:1,2016-06-01T07:12:00Z,26.4040,-81.8810,10.0,1.8,0.0,2.15,'1111122,1114422,1111122' 
COMPS,ioos:station:USF.COMPS:BGC:1,2016-06-01T07:18:00Z,26.4040,-81.8810,10.0,1.7,0.0,2.15,'1111122,1114422,1111122' 
COMPS,ioos:station:USF.COMPS:BGC:1,2016-06-01T07:24:00Z,26.4040,-81.8810,10.0,1.5,0.0,2.05,'1111122,1114422,1111122' 
COMPS,ioos:station:USF.COMPS:BGC:1,2016-06-01T07:30:00Z,26.4040,-81.8810,10.0,1.65,0.0,2.05,'1111122,1114422,1111122' 
COMPS,ioos:station:USF.COMPS:BGC:1,2016-06-01T07:36:00Z,26.4040,-81.8810,10.0,1.61,0.0,1.96,'1111122,1114422,1111122' 
COMPS,ioos:station:USF.COMPS:BGC:1,2016-06-01T07:42:00Z,26.4040,-81.8810,10.0,1.76,0.0,2.15,'1111122,1114422,1111122' 
COMPS,ioos:station:USF.COMPS:BGC:1,2016-06-01T07:48:00Z,26.4040,-81.8810,10.0,1.14,0.0,1.47,'1111122,1114422,1111122' 
COMPS,ioos:station:USF.COMPS:BGC:1,2016-06-01T07:54:00Z,26.4040,-81.8810,10.0,1.05,0.0,1.37,'1111122,1114422,1111122' 
COMPS,ioos:station:USF.COMPS:BGC:1,2016-06-01T08:00:00Z,26.4040,-81.8810,10.0,1.06,0.0,1.76,'1111122,1114422,1111122' 
COMPS,ioos:station:USF.COMPS:BGC:1,2016-06-01T08:06:00Z,26.4040,-81.8810,10.0,1.57,0.0,2.35,'1111122,1114422,1111122' 
COMPS,ioos:station:USF.COMPS:BGC:1,2016-06-01T08:12:00Z,26.4040,-81.8810,10.0,1.82,0.0,2.54,'1111122,1114422,1111122' 
COMPS,ioos:station:USF.COMPS:BGC:1,2016-06-01T08:18:00Z,26.4040,-81.8810,10.0,1.5,0.0,2.35,'1111122,1114422,1111122' 
COMPS,ioos:station:USF.COMPS:BGC:1,2016-06-01T08:24:00Z,26.4040,-81.8810,10.0,2.18,0.0,2.64,'1111122,1114422,1111122' 
COMPS,ioos:station:USF.COMPS:BGC:1,2016-06-01T08:30:00Z,26.4040,-81.8810,10.0,2.71,0.0,3.23,'1111122,1114422,1111122' 
COMPS,ioos:station:USF.COMPS:BGC:1,2016-06-01T08:36:00Z,26.4040,-81.8810,10.0,2.11,0.0,2.84,'1111122,1114422,1111122' 
COMPS,ioos:station:USF.COMPS:BGC:1,2016-06-01T08:42:00Z,26.4040,-81.8810,10.0,1.86,0.0,2.35,'1111122,1114422,1111122' 
COMPS,ioos:station:USF.COMPS:BGC:1,2016-06-01T08:48:00Z,26.4040,-81.8810,10.0,2.09,0.0,2.45,'1111122,1114422,1111122' 
COMPS,ioos:station:USF.COMPS:BGC:1,2016-06-01T08:54:00Z,26.4040,-81.8810,10.0,2.26,0.0,2.74,'1111122,1114422,1111122' 
COMPS,ioos:station:USF.COMPS:BGC:1,2016-06-01T09:00:00Z,26.4040,-81.8810,10.0,1.9,0.0,2.74,'1111122,1114422,1111122' 
COMPS,ioos:station:USF.COMPS:BGC:1,2016-06-01T09:06:00Z,26.4040,-81.8810,10.0,2.21,0.0,2.84,'1111122,1114422,1111122' 
COMPS,ioos:station:USF.COMPS:BGC:1,2016-06-01T09:12:00Z,26.4040,-81.8810,10.0,1.38,0.0,2.05,'1111122,1114422,1111122' 
COMPS,ioos:station:USF.COMPS:BGC:1,2016-06-01T09:18:00Z,26.4040,-81.8810,10.0,1.33,0.0,1.76,'1111122,1114422,1111122' 
COMPS,ioos:station:USF.COMPS:BGC:1,2016-06-01T09:24:00Z,26.4040,-81.8810,10.0,1.55,0.0,2.25,'1111122,1114422,1111122' 
COMPS,ioos:station:USF.COMPS:BGC:1,2016-06-01T09:30:00Z,26.4040,-81.8810,10.0,1.84,0.0,2.35,'1111122,1114422,1111122' 
COMPS,ioos:station:USF.COMPS:BGC:1,2016-06-01T09:36:00Z,26.4040,-81.8810,10.0,1.8,0.0,2.45,'1111122,1114422,1111122' 
COMPS,ioos:station:USF.COMPS:BGC:1,2016-06-01T09:42:00Z,26.4040,-81.8810,10.0,2.08,0.0,2.54,'1111122,1114422,1111122' 
COMPS,ioos:station:USF.COMPS:BGC:1,2016-06-01T09:48:00Z,26.4040,-81.8810,10.0,2.53,0.0,3.23,'1111122,1114422,1111122' 
COMPS,ioos:station:USF.COMPS:BGC:1,2016-06-01T09:54:00Z,26.4040,-81.8810,10.0,2.48,0.0,3.03,'1111122,1114422,1111122' 
COMPS,ioos:station:USF.COMPS:BGC:1,2016-06-01T10:00:00Z,26.4040,-81.8810,10.0,2.45,0.0,3.13,'1111122,1114422,1111122' 
COMPS,ioos:station:USF.COMPS:BGC:1,2016-06-01T10:06:00Z,26.4040,-81.8810,10.0,2.69,0.0,3.33,'1111122,1114422,1111122' 
COMPS,ioos:station:USF.COMPS:BGC:1,2016-06-01T10:12:00Z,26.4040,-81.8810,10.0,2.43,0.0,3.13,'1111122,1114422,1111122' 
COMPS,ioos:station:USF.COMPS:BGC:1,2016-06-01T10:18:00Z,26.4040,-81.8810,10.0,2.37,0.0,3.03,'1111122,1114422,1111122' 
COMPS,ioos:station:USF.COMPS:BGC:1,2016-06-01T10:24:00Z,26.4040,-81.8810,10.0,2.06,0.0,2.74,'1111122,1114422,1111122' 
COMPS,ioos:station:USF.COMPS:BGC:1,2016-06-01T10:30:00Z,26.4040,-81.8810,10.0,2.12,0.0,2.74,'1111122,1114422,1111122' 
COMPS,ioos:station:USF.COMPS:BGC:1,2016-06-01T10:36:00Z,26.4040,-81.8810,10.0,2.13,0.0,3.03,'1111122,1114422,1111122' 
COMPS,ioos:station:USF.COMPS:BGC:1,2016-06-01T10:42:00Z,26.4040,-81.8810,10.0,2.13,0.0,2.45,'1111122,1114422,1111122' 
COMPS,ioos:station:USF.COMPS:BGC:1,2016-06-01T10:48:00Z,26.4040,-81.8810,10.0,2.2,0.0,2.74,'1111122,1114422,1111122' 
COMPS,ioos:station:USF.COMPS:BGC:1,2016-06-01T10:54:00Z,26.4040,-81.8810,10.0,2.52,0.0,3.23,'1111122,1114422,1111122' 
COMPS,ioos:station:USF.COMPS:BGC:1,2016-06-01T11:00:00Z,26.4040,-81.8810,10.0,2.53,0.0,3.03,'1111122,1114422,1111122' 
COMPS,ioos:station:USF.COMPS:BGC:1,2016-06-01T11:06:00Z,26.4040,-81.8810,10.0,2.69,0.0,3.33,'1111122,1114422,1111122' 
COMPS,ioos:station:USF.COMPS:BGC:1,2016-06-01T11:12:00Z,26.4040,-81.8810,10.0,2.52,0.0,3.33,'1111122,1114422,1111122' 
COMPS,ioos:station:USF.COMPS:BGC:1,2016-06-01T11:18:00Z,26.4040,-81.8810,10.0,2.74,0.0,3.33,'1111122,1114422,1111122' 
COMPS,ioos:station:USF.COMPS:BGC:1,2016-06-01T11:24:00Z,26.4040,-81.8810,10.0,2.97,0.0,3.52,'1111122,1114422,1111122' 
COMPS,ioos:station:USF.COMPS:BGC:1,2016-06-01T11:30:00Z,26.4040,-81.8810,10.0,2.97,0.0,3.82,'1111122,1114422,1111122' 
COMPS,ioos:station:USF.COMPS:BGC:1,2016-06-01T11:36:00Z,26.4040,-81.8810,10.0,2.58,0.0,4.11,'1111122,1114422,1111122' 
COMPS,ioos:station:USF.COMPS:BGC:1,2016-06-01T11:42:00Z,26.4040,-81.8810,10.0,2.28,0.0,3.33,'1111122,1114422,1111122' 
COMPS,ioos:station:USF.COMPS:BGC:1,2016-06-01T11:48:00Z,26.4040,-81.8810,10.0,1.84,0.0,2.84,'1111122,1114422,1111122' 
COMPS,ioos:station:USF.COMPS:BGC:1,2016-06-01T11:54:00Z,26.4040,-81.8810,10.0,2.43,0.0,3.13,'1111122,1114422,1111122' 
COMPS,ioos:station:USF.COMPS:BGC:1,2016-06-01T12:00:00Z,26.4040,-81.8810,10.0,2.3,0.0,2.84,'1111122,1114422,1111122' 
COMPS,ioos:station:USF.COMPS:BGC:1,2016-06-01T12:06:00Z,26.4040,-81.8810,10.0,1.91,0.0,2.84,'1111122,1114422,1111122' 
COMPS,ioos:station:USF.COMPS:BGC:1,2016-06-01T12:12:00Z,26.4040,-81.8810,10.0,2.23,0.0,3.03,'1111122,1114422,1111122' 
COMPS,ioos:station:USF.COMPS:BGC:1,2016-06-01T12:18:00Z,26.4040,-81.8810,10.0,2.49,0.0,3.82,'1111122,1114422,1111122' 
COMPS,ioos:station:USF.COMPS:BGC:1,2016-06-01T12:24:00Z,26.4040,-81.8810,10.0,2.46,0.0,3.43,'1111122,1114422,1111122' 
COMPS,ioos:station:USF.COMPS:BGC:1,2016-06-01T12:30:00Z,26.4040,-81.8810,10.0,3.03,0.0,3.82,'1111122,1114422,1111122' 
COMPS,ioos:station:USF.COMPS:BGC:1,2016-06-01T12:36:00Z,26.4040,-81.8810,10.0,2.34,0.0,3.13,'1111122,1114422,1111122' 
COMPS,ioos:station:USF.COMPS:BGC:1,2016-06-01T12:42:00Z,26.4040,-81.8810,10.0,1.68,0.0,2.94,'1111122,1114422,1111122' 
COMPS,ioos:station:USF.COMPS:BGC:1,2016-06-01T12:48:00Z,26.4040,-81.8810,10.0,1.61,0.0,2.54,'1111122,1114422,1111122' 
COMPS,ioos:station:USF.COMPS:BGC:1,2016-06-01T12:54:00Z,26.4040,-81.8810,10.0,1.84,0.0,3.03,'1111122,1114422,1111122' 
COMPS,ioos:station:USF.COMPS:BGC:1,2016-06-01T13:00:00Z,26.4040,-81.8810,10.0,2.18,0.0,3.52,'1111122,1114422,1111122' 
COMPS,ioos:station:USF.COMPS:BGC:1,2016-06-01T13:06:00Z,26.4040,-81.8810,10.0,2.09,0.0,2.84,'1111122,1114422,1111122' 
COMPS,ioos:station:USF.COMPS:BGC:1,2016-06-01T13:12:00Z,26.4040,-81.8810,10.0,2.25,0.0,3.33,'1111122,1114422,1111122' 
COMPS,ioos:station:USF.COMPS:BGC:1,2016-06-01T13:18:00Z,26.4040,-81.8810,10.0,2.01,0.0,2.94,'1111122,1114422,1111122' 
COMPS,ioos:station:USF.COMPS:BGC:1,2016-06-01T13:24:00Z,26.4040,-81.8810,10.0,2.76,0.0,3.72,'1111122,1114422,1111122' 
COMPS,ioos:station:USF.COMPS:BGC:1,2016-06-01T13:30:00Z,26.4040,-81.8810,10.0,1.89,0.0,3.13,'1111122,1114422,1111122' 
COMPS,ioos:station:USF.COMPS:BGC:1,2016-06-01T13:36:00Z,26.4040,-81.8810,10.0,2.02,0.0,3.33,'1111122,1114422,1111122' 
COMPS,ioos:station:USF.COMPS:BGC:1,2016-06-01T13:42:00Z,26.4040,-81.8810,10.0,1.66,0.0,3.23,'1111122,1114422,1111122' 
COMPS,ioos:station:USF.COMPS:BGC:1,2016-06-01T13:48:00Z,26.4040,-81.8810,10.0,1.55,0.0,2.54,'1111122,1114422,1111122' 
COMPS,ioos:station:USF.COMPS:BGC:1,2016-06-01T13:54:00Z,26.4040,-81.8810,10.0,1.79,0.0,3.03,'1111122,1114422,1111122' 
COMPS,ioos:station:USF.COMPS:BGC:1,2016-06-01T14:00:00Z,26.4040,-81.8810,10.0,1.57,0.0,2.45,'1111122,1114422,1111122' 
COMPS,ioos:station:USF.COMPS:BGC:1,2016-06-01T14:06:00Z,26.4040,-81.8810,10.0,2.41,0.0,3.43,'1111122,1114422,1111122' 
COMPS,ioos:station:USF.COMPS:BGC:1,2016-06-01T14:12:00Z,26.4040,-81.8810,10.0,0.96,0.0,2.15,'1111122,1114422,1111122' 
COMPS,ioos:station:USF.COMPS:BGC:1,2016-06-01T14:18:00Z,26.4040,-81.8810,10.0,0.95,0.0,2.15,'1111122,1114422,1111122' 
COMPS,ioos:station:USF.COMPS:BGC:1,2016-06-01T14:24:00Z,26.4040,-81.8810,10.0,1.07,0.0,2.45,'1111122,1114422,1111122' 
COMPS,ioos:station:USF.COMPS:BGC:1,2016-06-01T14:30:00Z,26.4040,-81.8810,10.0,1.28,0.0,2.64,'1111122,1114422,1111122' 
COMPS,ioos:station:USF.COMPS:BGC:1,2016-06-01T14:36:00Z,26.4040,-81.8810,10.0,1.98,0.0,3.13,'1111122,1114422,1111122' 
COMPS,ioos:station:USF.COMPS:BGC:1,2016-06-01T14:42:00Z,26.4040,-81.8810,10.0,1.22,0.0,2.45,'1111122,1114422,1111122' 
COMPS,ioos:station:USF.COMPS:BGC:1,2016-06-01T14:48:00Z,26.4040,-81.8810,10.0,1.11,0.0,2.64,'1111122,1114422,1111122' 
COMPS,ioos:station:USF.COMPS:BGC:1,2016-06-01T14:54:00Z,26.4040,-81.8810,10.0,0.68,0.0,1.66,'1111122,1114422,1111122' 
COMPS,ioos:station:USF.COMPS:BGC:1,2016-06-01T15:00:00Z,26.4040,-81.8810,10.0,0.98,0.0,2.25,'1111122,1114422,1111122' 
COMPS,ioos:station:USF.COMPS:BGC:1,2016-06-01T15:06:00Z,26.4040,-81.8810,10.0,1.61,0.0,2.64,'1111122,1114422,1111122' 
COMPS,ioos:station:USF.COMPS:BGC:1,2016-06-01T15:12:00Z,26.4040,-81.8810,10.0,0.92,0.0,2.15,'1111122,1114422,1111122' 
COMPS,ioos:station:USF.COMPS:BGC:1,2016-06-01T15:18:00Z,26.4040,-81.8810,10.0,1.04,0.0,1.96,'1111122,1114422,1111122' 
COMPS,ioos:station:USF.COMPS:BGC:1,2016-06-01T15:24:00Z,26.4040,-81.8810,10.0,1.66,0.0,3.52,'1111122,1114422,1111122' 
COMPS,ioos:station:USF.COMPS:BGC:1,2016-06-01T15:30:00Z,26.4040,-81.8810,10.0,1.63,0.0,2.64,'1111122,1114422,1111122' 
COMPS,ioos:station:USF.COMPS:BGC:1,2016-06-01T15:36:00Z,26.4040,-81.8810,10.0,1.36,0.0,2.35,'1111122,1114422,1111122' 
COMPS,ioos:station:USF.COMPS:BGC:1,2016-06-01T15:42:00Z,26.4040,-81.8810,10.0,1.38,0.0,1.96,'1111122,1114422,1111122' 
COMPS,ioos:station:USF.COMPS:BGC:1,2016-06-01T15:48:00Z,26.4040,-81.8810,10.0,0.84,0.0,1.37,'1111122,1114422,1111122' 
COMPS,ioos:station:USF.COMPS:BGC:1,2016-06-01T15:54:00Z,26.4040,-81.8810,10.0,0.97,0.0,1.56,'1111122,1114422,1111122' 
COMPS,ioos:station:USF.COMPS:BGC:1,2016-06-01T16:00:00Z,26.4040,-81.8810,10.0,0.93,0.0,2.05,'1111122,1114422,1111122' 
COMPS,ioos:station:USF.COMPS:BGC:1,2016-06-01T16:06:00Z,26.4040,-81.8810,10.0,1.15,0.0,1.66,'1111122,1114422,1111122' 
COMPS,ioos:station:USF.COMPS:BGC:1,2016-06-01T16:12:00Z,26.4040,-81.8810,10.0,1.11,0.0,1.37,'1111122,1114422,1111122' 
COMPS,ioos:station:USF.COMPS:BGC:1,2016-06-01T16:18:00Z,26.4040,-81.8810,10.0,1.64,0.0,2.64,'1111122,1114422,1111122' 
COMPS,ioos:station:USF.COMPS:BGC:1,2016-06-01T16:24:00Z,26.4040,-81.8810,10.0,3.1,0.0,4.41,'1111122,1114422,1111122' 
COMPS,ioos:station:USF.COMPS:BGC:1,2016-06-01T16:30:00Z,26.4040,-81.8810,10.0,3.72,0.0,4.6,'1111122,1114422,1111122' 
COMPS,ioos:station:USF.COMPS:BGC:1,2016-06-01T16:36:00Z,26.4040,-81.8810,10.0,3.49,0.0,4.11,'1111122,1114422,1111122' 
COMPS,ioos:station:USF.COMPS:BGC:1,2016-06-01T16:42:00Z,26.4040,-81.8810,10.0,3.47,0.0,4.01,'1111122,1114422,1111122' 
COMPS,ioos:station:USF.COMPS:BGC:1,2016-06-01T16:48:00Z,26.4040,-81.8810,10.0,3.05,0.0,3.52,'1111122,1114422,1111122' 
COMPS,ioos:station:USF.COMPS:BGC:1,2016-06-01T16:54:00Z,26.4040,-81.8810,10.0,2.75,0.0,3.33,'1111122,1114422,1111122' 
COMPS,ioos:station:USF.COMPS:BGC:1,2016-06-01T17:00:00Z,26.4040,-81.8810,10.0,2.67,0.0,3.52,'1111122,1114422,1111122' 
COMPS,ioos:station:USF.COMPS:BGC:1,2016-06-01T17:06:00Z,26.4040,-81.8810,10.0,3.27,0.0,3.92,'1111122,1114422,1111122' 
COMPS,ioos:station:USF.COMPS:BGC:1,2016-06-01T17:12:00Z,26.4040,-81.8810,10.0,3.61,0.0,4.31,'1111122,1114422,1111122' 
COMPS,ioos:station:USF.COMPS:BGC:1,2016-06-01T17:18:00Z,26.4040,-81.8810,10.0,3.4,0.0,4.11,'1111122,1114422,1111122' 
COMPS,ioos:station:USF.COMPS:BGC:1,2016-06-01T17:24:00Z,26.4040,-81.8810,10.0,3.62,0.0,4.21,'1111122,1114422,1111122' 
COMPS,ioos:station:USF.COMPS:BGC:1,2016-06-01T17:30:00Z,26.4040,-81.8810,10.0,3.65,0.0,4.21,'1111122,1114422,1111122' 
COMPS,ioos:station:USF.COMPS:BGC:1,2016-06-01T17:36:00Z,26.4040,-81.8810,10.0,3.78,0.0,4.31,'1111122,1114422,1111122' 
COMPS,ioos:station:USF.COMPS:BGC:1,2016-06-01T17:42:00Z,26.4040,-81.8810,10.0,4.07,0.0,4.7,'1111122,1114422,1111122' 
COMPS,ioos:station:USF.COMPS:BGC:1,2016-06-01T17:48:00Z,26.4040,-81.8810,10.0,3.58,0.0,4.11,'1111122,1114422,1111122' 
COMPS,ioos:station:USF.COMPS:BGC:1,2016-06-01T17:54:00Z,26.4040,-81.8810,10.0,3.23,0.0,3.82,'1111122,1114422,1111122' 
COMPS,ioos:station:USF.COMPS:BGC:1,2016-06-01T18:00:00Z,26.4040,-81.8810,10.0,3.45,0.0,4.31,'1111122,1114422,1111122' 
COMPS,ioos:station:USF.COMPS:BGC:1,2016-06-01T18:06:00Z,26.4040,-81.8810,10.0,3.85,0.0,4.8,'1111122,1114422,1111122' 
COMPS,ioos:station:USF.COMPS:BGC:1,2016-06-01T18:12:00Z,26.4040,-81.8810,10.0,4.79,0.0,5.78,'1111122,1114422,1111122' 
COMPS,ioos:station:USF.COMPS:BGC:1,2016-06-01T18:18:00Z,26.4040,-81.8810,10.0,4.64,0.0,5.39,'1111122,1114422,1111122' 
COMPS,ioos:station:USF.COMPS:BGC:1,2016-06-01T18:24:00Z,26.4040,-81.8810,10.0,4.8,0.0,5.78,'1111122,1114422,1111122' 
COMPS,ioos:station:USF.COMPS:BGC:1,2016-06-01T18:30:00Z,26.4040,-81.8810,10.0,4.87,0.0,6.07,'1111122,1114422,1111122' 
COMPS,ioos:station:USF.COMPS:BGC:1,2016-06-01T18:36:00Z,26.4040,-81.8810,10.0,4.63,0.0,5.58,'1111122,1114422,1111122' 
COMPS,ioos:station:USF.COMPS:BGC:1,2016-06-01T18:42:00Z,26.4040,-81.8810,10.0,4.23,0.0,4.8,'1111122,1114422,1111122' 
COMPS,ioos:station:USF.COMPS:BGC:1,2016-06-01T18:48:00Z,26.4040,-81.8810,10.0,4.34,0.0,5.19,'1111122,1114422,1111122' 
COMPS,ioos:station:USF.COMPS:BGC:1,2016-06-01T18:54:00Z,26.4040,-81.8810,10.0,4.12,0.0,4.9,'1111122,1114422,1111122' 
COMPS,ioos:station:USF.COMPS:BGC:1,2016-06-01T19:00:00Z,26.4040,-81.8810,10.0,4.14,0.0,5.29,'1111122,1114422,1111122' 
COMPS,ioos:station:USF.COMPS:BGC:1,2016-06-01T19:06:00Z,26.4040,-81.8810,10.0,4.81,0.0,5.48,'1111122,1114422,1111122' 
COMPS,ioos:station:USF.COMPS:BGC:1,2016-06-01T19:12:00Z,26.4040,-81.8810,10.0,4.77,0.0,5.58,'1111122,1114422,1111122' 
COMPS,ioos:station:USF.COMPS:BGC:1,2016-06-01T19:18:00Z,26.4040,-81.8810,10.0,5.11,0.0,5.97,'1111122,1114422,1111122' 
COMPS,ioos:station:USF.COMPS:BGC:1,2016-06-01T19:24:00Z,26.4040,-81.8810,10.0,5.13,0.0,5.97,'1111122,1114422,1111122' 
COMPS,ioos:station:USF.COMPS:BGC:1,2016-06-01T19:30:00Z,26.4040,-81.8810,10.0,5.59,0.0,6.07,'1111122,1114422,1111122' 
COMPS,ioos:station:USF.COMPS:BGC:1,2016-06-01T19:36:00Z,26.4040,-81.8810,10.0,5.26,0.0,6.07,'1111122,1114422,1111122' 
COMPS,ioos:station:USF.COMPS:BGC:1,2016-06-01T19:42:00Z,26.4040,-81.8810,10.0,5.9,0.0,6.95,'1111122,1114422,1111122' 
COMPS,ioos:station:USF.COMPS:BGC:1,2016-06-01T19:48:00Z,26.4040,-81.8810,10.0,6.34,0.0,7.35,'1111122,1114422,1111122' 
COMPS,ioos:station:USF.COMPS:BGC:1,2016-06-01T19:54:00Z,26.4040,-81.8810,10.0,6.34,0.0,7.05,'1111122,1114422,1111122' 
COMPS,ioos:station:USF.COMPS:BGC:1,2016-06-01T20:00:00Z,26.4040,-81.8810,10.0,6.7,0.0,7.44,'1111122,1114422,1111122' 
COMPS,ioos:station:USF.COMPS:BGC:1,2016-06-01T20:06:00Z,26.4040,-81.8810,10.0,6.46,0.0,7.35,'1111122,1114422,1111122' 
COMPS,ioos:station:USF.COMPS:BGC:1,2016-06-01T20:12:00Z,26.4040,-81.8810,10.0,6.35,0.0,7.84,'1111122,1114422,1111122' 
COMPS,ioos:station:USF.COMPS:BGC:1,2016-06-01T20:18:00Z,26.4040,-81.8810,10.0,6.43,0.0,7.84,'1111122,1114422,1111122' 
COMPS,ioos:station:USF.COMPS:BGC:1,2016-06-01T20:24:00Z,26.4040,-81.8810,10.0,7.02,0.0,7.93,'1111122,1114422,1111122' 
COMPS,ioos:station:USF.COMPS:BGC:1,2016-06-01T20:30:00Z,26.4040,-81.8810,10.0,6.47,0.0,7.64,'1111122,1114422,1111122' 
COMPS,ioos:station:USF.COMPS:BGC:1,2016-06-01T20:36:00Z,26.4040,-81.8810,10.0,6.63,0.0,7.74,'1111122,1114422,1111122' 
COMPS,ioos:station:USF.COMPS:BGC:1,2016-06-01T20:42:00Z,26.4040,-81.8810,10.0,6.81,0.0,7.93,'1111122,1114422,1111122' 
COMPS,ioos:station:USF.COMPS:BGC:1,2016-06-01T20:48:00Z,26.4040,-81.8810,10.0,7.18,0.0,7.74,'1111122,1114422,1111122' 
COMPS,ioos:station:USF.COMPS:BGC:1,2016-06-01T20:54:00Z,26.4040,-81.8810,10.0,7.02,0.0,8.13,'1111122,1114422,1111122' 